Content
SEND FEEDBACK

Daily
Averages
Monthly
Summary
Canada

SUDBURY, ONTARIO


Home > North America > Canada > Ontario
Elevation: 1140 feet     Latitude: 46 37N     Longitude: 080 48W

WEATHER
 
SELECT A DAY
Number of Records: 184,019;   Date Range: 1/1/95 - 8/27/14
 
SHARE

PRINT THIS DATA

[ ← Previous Day ]
WEATHER ALMANAC - JANUARY 16, 2013
[ Next Day → ]
[ °C ]   °F
Weather ElementAverageHighLow
Temperature16.5 °F30.2 °F (12:00 pm) (12:33 am)
Dewpoint12.2 °F23 °F (6:00 pm) (7:00 pm)
Humidity77.4 %93 % (6:00 am)60 % (12:00 pm)
Wind Speed19.3 mph32.2 mph (8:46 pm)
Wind Gust47.2 mph (1:50 pm)
Weather ElementAverage
Visibility10.4 mi
Wind DirectionWNW (280.9 °)

Weather ElementTotal
Precipitation---
Heating Degree Days49.9 (Base 65)
Averaged from 35 records on January 16, 2013
WEATHER CONDITIONS BREAKOUT
WIND DIRECTION BREAKOUT
WEATHER BY HOUR - JANUARY 16, 2013
[ °C ]   °F
Local TimeTemperatureDewpointHumidityBarometerVisibilityWind DirectionWind SpeedGust SpeedPrecipitationEventsConditions
12:33 AM0.0 °F0.0 °F15.0 miSouth (190°)15.0 mph
1:00 AM22.0 °F15.0 °F65 %30.02 in15.0 miSouth (190°)15.0 mphSnowLight Snow
2:00 AM23.0 °F15.8 °F74 %30.00 in15.0 miSSW (200°)15.0 mphSnowLight Snow
3:00 AM23.0 °F15.8 °F74 %29.98 in15.0 miSSW (210°)16.1 mphSnowLight Snow
4:00 AM21.2 °F15.8 °F80 %29.94 in15.0 miSSW (200°)13.8 mphSnowLight Snow
4:41 AM0.0 °F0.0 °F15.0 miSSW (200°)11.5 mphOvercast
5:00 AM19.4 °F15.8 °F86 %29.90 in15.0 miSouth (190°)13.8 mphMostly Cloudy
6:00 AM17.6 °F15.8 °F93 %29.87 in15.0 miSouth (180°)16.1 mphScattered Clouds
7:00 AM19.4 °F15.8 °F86 %29.83 in15.0 miSouth (190°)18.4 mphPartly Cloudy
7:00 AM20.0 °F16.0 °F77 %29.83 in15.0 miSouth (190°)17.3 mphPartly Cloudy
8:00 AM21.2 °F17.6 °F86 %29.81 in20.0 miSouth (190°)16.1 mphScattered Clouds
9:00 AM24.8 °F19.4 °F80 %29.79 in20.0 miSSW (200°)17.3 mphSnowLow Drifting Snow
10:00 AM26.6 °F19.4 °F74 %29.73 in20.0 miSW (220°)23.0 mph28.8 mphSnowLow Drifting Snow
11:00 AM28.4 °F19.4 °F69 %29.67 in20.0 miSSW (210°)21.9 mph31.1 mphSnowLow Drifting Snow
12:00 PM30.2 °F17.6 °F60 %29.63 in20.0 miSSW (200°)27.6 mph33.4 mphSnowLow Drifting Snow
1:00 PM30.2 °F17.6 °F60 %29.59 in20.0 miSW (220°)27.6 mph36.8 mphSnowLow Drifting Snow
1:50 PM0.0 °F0.0 °F3.0 miSW (220°)31.1 mph47.2 mph
2:00 PM28.4 °F19.4 °F69 %29.57 in5.0 miSW (220°)23.0 mph39.1 mphSnowLight Snow
2:23 PM0.0 °F0.0 °F2.0 miSSW (210°)25.3 mph34.5 mph
2:47 PM0.0 °F0.0 °F3.0 miSW (220°)23.0 mph34.5 mph
3:00 PM26.6 °F21.2 °F80 %29.55 in2.0 miSW (220°)24.2 mph36.8 mphSnowLight Snow
3:36 PM0.0 °F0.0 °F5.0 miSW (220°)24.2 mph
4:00 PM26.6 °F21.2 °F80 %29.56 in4.0 miSW (230°)19.6 mph29.9 mphSnowLight Snow
5:00 PM26.6 °F21.2 °F80 %29.57 in7.0 miSW (230°)17.3 mph27.6 mphSnowLight Snow
6:00 PM26.6 °F23.0 °F86 %29.57 in10.0 miSW (230°)12.7 mph23.0 mphSnowLight Snow
7:00 PM26.6 °F23.0 °F86 %29.61 in4.0 miWSW (240°)13.8 mph21.9 mphSnowLight Snow
7:00 PM27.0 °F23.0 °F77 %29.61 in4.0 miWSW (240°)13.8 mphSnowLight Snow
8:00 PM26.6 °F21.2 °F80 %29.63 in4.0 miWSW (240°)12.7 mph20.7 mphSnowLight Snow
8:40 PM0.0 °F0.0 °F1.5 miWest (260°)16.1 mph23.0 mph
8:46 PM0.0 °F0.0 °F0.0 mi24.2 (2013°)32.2 mph350
8:54 PM0.0 °F0.0 °F1.5 miNNW (340°)20.7 mph34.5 mph
9:00 PM15.8 °F12.2 °F86 %29.68 in1.5 miNNW (340°)18.4 mph34.5 mphSnowLight Snow Showers
9:25 PM0.0 °F0.0 °F5.0 miNW (320°)18.4 mph25.3 mph
10:00 PM10.4 °F3.2 °F73 %29.76 in15.0 miNNW (330°)23.0 mph28.8 mphSnowLight Snow Showers
11:00 PM8.6 °F1.4 °F73 %29.82 in15.0 miNNW (330°)19.6 mph26.5 mphSnowLight Snow Showers
Hourly data recorded from CYSB, located miles away from Sudbury, Ontario







STORIES FROM OUR PARTNERS